Time,TemperatureF,DewpointF,PressureIn,WindDirection,WindDirectionDegrees,WindSpeedMPH,WindSpeedGustMPH,Humidity,HourlyPrecipIn,Conditions,Clouds,dailyrainin,SoftwareType,DateUTC
2013-08-24 00:23:00,73.0,72.0,29.99,North,-999,-999.0,-999.0,94,-99.99,,,-99.99,,2013-08-24 05:23:00,
2013-08-24 00:43:00,73.0,70.0,29.99,North,-999,-999.0,-999.0,88,-99.99,,,-99.99,,2013-08-24 05:43:00,
2013-08-24 00:53:00,73.0,72.0,29.99,North,-999,-999.0,-999.0,94,-99.99,,,-99.99,,2013-08-24 05:53:00,
2013-08-24 01:02:00,73.0,72.0,29.99,North,-999,-999.0,-999.0,94,-99.99,,,-99.99,,2013-08-24 06:02:00,
2013-08-24 01:22:00,72.0,70.0,29.99,North,-999,-999.0,-999.0,94,-99.99,,,-99.99,,2013-08-24 06:22:00,
2013-08-24 01:42:00,72.0,70.0,29.99,North,-999,-999.0,-999.0,94,-99.99,,,-99.99,,2013-08-24 06:42:00,
2013-08-24 02:22:00,72.0,70.0,29.98,North,-999,-999.0,-999.0,94,-99.99,,,-99.99,,2013-08-24 07:22:00,
2013-08-24 02:43:00,72.0,70.0,29.98,North,-999,-999.0,-999.0,94,-99.99,,,-99.99,,2013-08-24 07:43:00,
2013-08-24 03:22:00,72.0,70.0,29.98,North,-999,-999.0,-999.0,94,-99.99,,,-99.99,,2013-08-24 08:22:00,
2013-08-24 03:42:00,72.0,70.0,29.97,North,-999,-999.0,-999.0,94,-99.99,,,-99.99,,2013-08-24 08:42:00,
2013-08-24 03:52:00,72.0,70.0,29.97,North,-999,-999.0,-999.0,94,-99.99,,,-99.99,,2013-08-24 08:52:00,
2013-08-24 04:01:00,72.0,70.0,29.97,North,-999,-999.0,-999.0,94,-99.99,,,-99.99,,2013-08-24 09:01:00,
2013-08-24 04:22:00,72.0,70.0,29.97,North,-999,-999.0,-999.0,94,-99.99,,,-99.99,,2013-08-24 09:22:00,
2013-08-24 04:44:00,72.0,70.0,29.97,North,-999,-999.0,-999.0,94,-99.99,,,-99.99,,2013-08-24 09:44:00,
2013-08-24 05:23:00,72.0,70.0,29.97,North,-999,-999.0,-999.0,94,-99.99,,,-99.99,,2013-08-24 10:23:00,
2013-08-24 05:42:00,72.0,70.0,29.96,North,-999,-999.0,-999.0,94,-99.99,,,-99.99,,2013-08-24 10:42:00,
2013-08-24 06:22:00,72.0,70.0,29.96,North,-999,-999.0,-999.0,94,-99.99,,,-99.99,,2013-08-24 11:22:00,
2013-08-24 06:42:00,72.0,70.0,29.96,North,-999,-999.0,-999.0,94,-99.99,,,-99.99,,2013-08-24 11:42:00,
2013-08-24 07:21:00,72.0,70.0,29.96,North,-999,-999.0,-999.0,94,-99.99,,,-99.99,,2013-08-24 12:21:00,
2013-08-24 07:42:00,72.0,70.0,29.95,North,-999,-999.0,-999.0,94,-99.99,,,-99.99,,2013-08-24 12:42:00,
2013-08-24 08:22:00,72.0,70.0,29.95,North,-999,-999.0,-999.0,94,-99.99,,,-99.99,,2013-08-24 13:22:00,
2013-08-24 08:42:00,73.0,70.0,29.95,North,-999,-999.0,-999.0,88,-99.99,,,-99.99,,2013-08-24 13:42:00,
2013-08-24 09:22:00,75.0,70.0,29.95,North,-999,-999.0,-999.0,83,-99.99,,,-99.99,,2013-08-24 14:22:00,
2013-08-24 09:42:00,79.0,68.0,29.95,North,-999,-999.0,-999.0,69,-99.99,,,-99.99,,2013-08-24 14:42:00,
2013-08-24 09:52:00,79.0,68.0,29.95,North,-999,-999.0,-999.0,69,-99.99,,,-99.99,,2013-08-24 14:52:00,
2013-08-24 10:01:00,79.0,68.0,29.95,North,-999,-999.0,-999.0,69,-99.99,,,-99.99,,2013-08-24 15:01:00,
2013-08-24 10:22:00,82.0,70.0,29.93,North,-999,-999.0,-999.0,65,-99.99,,,-99.99,,2013-08-24 15:22:00,
2013-08-24 10:45:00,84.0,70.0,29.92,North,-999,-999.0,-999.0,62,-99.99,,,-99.99,,2013-08-24 15:45:00,
2013-08-24 11:23:00,84.0,70.0,29.91,North,-999,-999.0,-999.0,62,-99.99,,,-99.99,,2013-08-24 16:23:00,
2013-08-24 11:42:00,84.0,68.0,29.91,North,-999,-999.0,-999.0,58,-99.99,,,-99.99,,2013-08-24 16:42:00,
2013-08-24 12:23:00,88.0,70.0,29.90,North,-999,-999.0,-999.0,55,-99.99,,,-99.99,,2013-08-24 17:23:00,
2013-08-24 12:42:00,88.0,70.0,29.90,North,-999,-999.0,-999.0,55,-99.99,,,-99.99,,2013-08-24 17:42:00,
2013-08-24 13:22:00,88.0,72.0,29.89,North,-999,-999.0,-999.0,58,-99.99,,,-99.99,,2013-08-24 18:22:00,
2013-08-24 13:42:00,90.0,66.0,29.89,North,-999,-999.0,-999.0,46,-99.99,,,-99.99,,2013-08-24 18:42:00,
2013-08-24 14:22:00,90.0,68.0,29.88,North,-999,-999.0,-999.0,49,-99.99,,,-99.99,,2013-08-24 19:22:00,
2013-08-24 14:42:00,91.0,70.0,29.87,North,-999,-999.0,-999.0,49,-99.99,,,-99.99,,2013-08-24 19:42:00,
2013-08-24 15:22:00,93.0,70.0,29.86,North,-999,-999.0,-999.0,46,-99.99,,,-99.99,,2013-08-24 20:22:00,
2013-08-24 15:42:00,91.0,72.0,29.86,North,-999,-999.0,-999.0,52,-99.99,,,-99.99,,2013-08-24 20:42:00,
2013-08-24 15:52:00,91.0,72.0,29.86,North,-999,-999.0,-999.0,52,-99.99,,,-99.99,,2013-08-24 20:52:00,
2013-08-24 16:02:00,91.0,72.0,29.86,North,-999,-999.0,-999.0,52,-99.99,,,-99.99,,2013-08-24 21:02:00,
2013-08-24 16:22:00,91.0,72.0,29.86,North,-999,-999.0,-999.0,52,-99.99,,,-99.99,,2013-08-24 21:22:00,
2013-08-24 16:43:00,91.0,72.0,29.85,North,-999,-999.0,-999.0,52,-99.99,,,-99.99,,2013-08-24 21:43:00,
2013-08-24 17:14:00,91.0,73.0,29.85,North,-999,-999.0,-999.0,55,-99.99,,,-99.99,,2013-08-24 22:14:00,
2013-08-24 17:24:00,91.0,73.0,29.85,North,-999,-999.0,-999.0,55,-99.99,,,-99.99,,2013-08-24 22:24:00,
2013-08-24 17:43:00,91.0,72.0,29.85,North,-999,-999.0,-999.0,52,-99.99,,,-99.99,,2013-08-24 22:43:00,
2013-08-24 17:53:00,91.0,73.0,29.86,North,-999,-999.0,-999.0,55,-99.99,,,-99.99,,2013-08-24 22:53:00,
2013-08-24 18:03:00,91.0,73.0,29.86,North,-999,-999.0,-999.0,55,-99.99,,,-99.99,,2013-08-24 23:03:00,
2013-08-24 18:22:00,91.0,73.0,29.86,North,-999,-999.0,-999.0,55,-99.99,,,-99.99,,2013-08-24 23:22:00,
2013-08-24 18:43:00,90.0,73.0,29.86,North,-999,-999.0,-999.0,59,-99.99,,,-99.99,,2013-08-24 23:43:00,
2013-08-24 18:53:00,90.0,73.0,29.86,North,-999,-999.0,-999.0,59,-99.99,,,-99.99,,2013-08-24 23:53:00,
2013-08-24 19:02:00,90.0,73.0,29.86,North,-999,-999.0,-999.0,59,-99.99,,,-99.99,,2013-08-25 00:02:00,
2013-08-24 19:12:00,90.0,73.0,29.86,North,-999,-999.0,-999.0,59,-99.99,,,-99.99,,2013-08-25 00:12:00,
2013-08-24 19:22:00,90.0,73.0,29.86,North,-999,-999.0,-999.0,59,-99.99,,,-99.99,,2013-08-25 00:22:00,
2013-08-24 19:42:00,88.0,73.0,29.86,North,-999,-999.0,-999.0,62,-99.99,,,-99.99,,2013-08-25 00:42:00,
2013-08-24 19:52:00,88.0,73.0,29.86,North,-999,-999.0,-999.0,62,-99.99,,,-99.99,,2013-08-25 00:52:00,
2013-08-24 20:01:00,88.0,73.0,29.86,North,-999,-999.0,-999.0,62,-99.99,,,-99.99,,2013-08-25 01:01:00,
2013-08-24 20:22:00,86.0,73.0,29.86,North,-999,-999.0,-999.0,66,-99.99,,,-99.99,,2013-08-25 01:22:00,
2013-08-24 20:42:00,84.0,73.0,29.86,North,-999,-999.0,-999.0,70,-99.99,,,-99.99,,2013-08-25 01:42:00,
2013-08-24 21:22:00,84.0,73.0,29.88,North,-999,-999.0,-999.0,70,-99.99,,,-99.99,,2013-08-25 02:22:00,
2013-08-24 21:42:00,84.0,75.0,29.88,North,-999,-999.0,-999.0,74,-99.99,,,-99.99,,2013-08-25 02:42:00,
2013-08-24 21:52:00,84.0,75.0,29.88,North,-999,-999.0,-999.0,74,-99.99,,,-99.99,,2013-08-25 02:52:00,
2013-08-24 22:02:00,84.0,75.0,29.88,North,-999,-999.0,-999.0,74,-99.99,,,-99.99,,2013-08-25 03:02:00,
2013-08-24 22:23:00,82.0,75.0,29.89,North,-999,-999.0,-999.0,78,-99.99,,,-99.99,,2013-08-25 03:23:00,
2013-08-24 22:44:00,82.0,75.0,29.89,North,-999,-999.0,-999.0,78,-99.99,,,-99.99,,2013-08-25 03:44:00,
2013-08-24 23:25:00,82.0,75.0,29.90,North,-999,-999.0,-999.0,78,-99.99,,,-99.99,,2013-08-25 04:25:00,
2013-08-24 23:43:00,82.0,75.0,29.90,North,-999,-999.0,-999.0,78,-99.99,,,-99.99,,2013-08-25 04:43:00,